Norfolk, NE

10:48 PM CDT on March 23, 2017 (GMT -0500)
Stefan Memorial

Weather History for KOFK - September, 2013

Change the Weather History Date:

Friday, September 6, 2013

  Actual Average Record
Temperature  
Mean Temperature 81 °F 68 °F  
Max Temperature 95 °F 80 °F 103 °F (1913)
Min Temperature 67 °F 56 °F 36 °F (1956)
Degree Days  
Heating Degree Days 0 2  
Month to date heating degree days 0 9  
Since 1 July heating degree days 16 25  
Cooling Degree Days 16 5  
Month to date cooling degree days 53 32  
Year to date cooling degree days 877 848  
Growing Degree Days 30 (Base 50)    
Moisture  
Dew Point 64 °F    
Average Humidity 61    
Maximum Humidity 81    
Minimum Humidity 41    
Precipitation  
Precipitation 0.00 in 0.08 in 1.44 in (1936)
Month to date precipitation T 0.56  
Year to date precipitation 18.41 21.09  
Snow  
Snow 0.00 in 0.00 in - ()
Month to date snowfall 0.0 0.0  
Since 1 July snowfall 0.0 0.0  
Snow Depth 0.00 in    
Sea Level Pressure  
Sea Level Pressure 29.94 in    
Wind  
Wind Speed 13 mph (SSE)    
Max Wind Speed 23 mph    
Max Gust Speed 29 mph    
Visibility 10 miles    
Events      
T = Trace of Precipitation, MM = Missing Value Source: NWS Daily Summary

Daily Weather History Graph

Daily Weather History Graph

Search for Another Location

Airport or City:

Trip Planner

Search our weather history database for the weather conditions in past years. The results will help you decide how hot, cold, wet, or windy it might be!

Date:

Astronomy

Sep. 06, 2013 Rise Set
Actual Time 7:00 AM CDT 7:54 PM CDT
Civil Twilight 6:32 AM CDT 8:22 PM CDT
Nautical Twilight 5:58 AM CDT 8:56 PM CDT
Astronomical Twilight 5:23 AM CDT 9:31 PM CDT
Moon 8:16 AM CDT (9/6) 8:16 PM CDT (9/6)
Length of Visible Light 13h 50m
Length of Day
12h 53m
New Moon, 2% of the Moon is Illuminated
Sep 6
New Moon
Sep 12
First Quarter
Sep 19
Full
Sep 26
Last Quarter
Oct 4
New

Hourly Weather History & Observations

Time (CDT) Temp. Heat Index Dew Point Humidity Pressure Visibility Wind Dir Wind Speed Gust Speed Precip Events Conditions
12:56 AM 71.1 °F - 61.0 °F 70% 30.04 in 10.0 mi SSE 10.4 mph - N/A   Clear
1:56 AM 68.0 °F - 61.0 °F 78% 30.06 in 10.0 mi SE 6.9 mph - N/A   Clear
2:56 AM 66.9 °F - 61.0 °F 81% 30.05 in 10.0 mi SSE 10.4 mph - N/A   Clear
3:56 AM 66.9 °F - 60.1 °F 79% 30.04 in 10.0 mi SSE 11.5 mph - N/A   Clear
4:56 AM 68.0 °F - 60.1 °F 76% 30.04 in 10.0 mi SSE 10.4 mph - N/A   Clear
5:56 AM 68.0 °F - 61.0 °F 78% 30.02 in 10.0 mi South 10.4 mph - N/A   Clear
6:56 AM 68.0 °F - 61.0 °F 78% 30.02 in 10.0 mi SSE 11.5 mph - N/A   Clear
7:56 AM 70.0 °F - 62.1 °F 76% 30.01 in 10.0 mi South 11.5 mph 19.6 mph N/A   Clear
8:56 AM 73.9 °F - 63.0 °F 68% 29.99 in 10.0 mi South 13.8 mph - N/A   Clear
9:56 AM 77.0 °F - 64.0 °F 64% 29.98 in 10.0 mi South 13.8 mph - N/A   Clear
10:56 AM 81.0 °F 82.7 °F 64.9 °F 58% 29.97 in 10.0 mi SSE 12.7 mph - N/A   Clear
11:56 AM 84.9 °F 86.6 °F 64.9 °F 51% 29.95 in 10.0 mi South 13.8 mph 19.6 mph N/A   Clear
12:56 PM 89.1 °F 91.3 °F 66.0 °F 46% 29.92 in 10.0 mi South 16.1 mph 23.0 mph N/A   Clear
1:56 PM 90.0 °F 92.4 °F 66.0 °F 45% 29.90 in 10.0 mi South 18.4 mph 25.3 mph N/A   Clear
2:56 PM 93.0 °F 95.9 °F 66.0 °F 41% 29.89 in 10.0 mi South 15.0 mph 26.5 mph N/A   Clear
3:56 PM 93.0 °F 95.9 °F 66.0 °F 41% 29.87 in 10.0 mi South 20.7 mph 26.5 mph N/A   Clear
4:56 PM 93.9 °F 97.0 °F 66.0 °F 40% 29.85 in 10.0 mi South 13.8 mph 23.0 mph N/A   Clear
5:56 PM 91.9 °F 94.5 °F 66.0 °F 42% 29.84 in 10.0 mi South 13.8 mph 21.9 mph N/A   Clear
6:56 PM 89.1 °F 91.3 °F 66.0 °F 46% 29.84 in 10.0 mi South 12.7 mph - N/A   Clear
7:56 PM 84.9 °F 86.6 °F 64.9 °F 51% 29.83 in 10.0 mi SSE 10.4 mph - N/A   Clear
8:56 PM 82.0 °F 84.1 °F 66.0 °F 58% 29.85 in 10.0 mi SSE 8.1 mph - N/A   Clear
9:56 PM 79.0 °F - 66.9 °F 66% 29.84 in 10.0 mi SSE 10.4 mph - N/A   Clear
10:56 PM 79.0 °F - 66.9 °F 66% 29.84 in 10.0 mi South 12.7 mph - N/A   Clear
11:56 PM 79.0 °F - 64.9 °F 62% 29.84 in 10.0 mi South 12.7 mph - N/A   Clear